Weather History for Manistique, MI

Change the Weather History Date:

Saturday, November 15, 2014

  Actual Average Record
Temperature  
Mean Temperature 18 °F -  
Max Temperature 25 °F 39 °F 60 °F (2001)
Min Temperature 12 °F 27 °F 1 °F (1959)
Degree Days  
Heating Degree Days 46    
Moisture  
Dew Point 13 °F    
Average Humidity 75    
Maximum Humidity 88    
Minimum Humidity 59    
Precipitation  
Precipitation 0.00 in - - ()
Sea Level Pressure  
Sea Level Pressure 30.18 in    
Wind  
Wind Speed 5 mph (WSW)    
Max Wind Speed 10 mph    
Max Gust Speed 17 mph    
Visibility 10 miles    
Events      
Averages and records for this station are not official NWS values.
T = Trace of Precipitation, MM = Missing Value Source: NWS Daily Summary

Daily Weather History Graph

Daily Weather History Graph

Search for Another Location

Airport:

Trip Planner

Search our weather history database for the weather conditions in past years. The results will help you decide how hot, cold, wet, or windy it might be!

Date:

Astronomy

Nov. 15, 2014 Rise Set
Actual Time 7:45 AM EST 5:13 PM EST
Civil Twilight 7:12 AM EST 5:45 PM EST
Nautical Twilight 6:36 AM EST 6:21 PM EST
Astronomical Twilight 6:01 AM EST 6:56 PM EST
Moon 12:34 AM EST (11/15) 1:55 PM EST (11/15)
Length of Visible Light 10h 32m
Length of Day
9h 27m
Last Quarter, 40% of the Moon is Illuminated
Nov 15
Last Quarter
Nov 22
New
Nov 29
First Quarter
Dec 6
Full
Dec 14
Last Quarter

Hourly Weather History & Observations

Time (EST) Temp. Windchill Dew Point Humidity Pressure Visibility Wind Dir Wind Speed Gust Speed Precip Events Conditions
12:14 AM 18.9 °F 9.8 °F 14.4 °F 83% 30.24 in 10.0 mi West 6.9 mph - N/A   Clear
12:33 AM 18.9 °F 10.8 °F 14.4 °F 83% 30.24 in 10.0 mi West 5.8 mph - N/A   Clear
12:54 AM 18.1 °F - 13.8 °F 83% 30.24 in 10.0 mi Calm Calm - N/A   Clear
1:14 AM 17.8 °F 12.5 °F 13.6 °F 84% 30.24 in 10.0 mi WSW 3.5 mph - N/A   Clear
1:33 AM 17.6 °F - 13.1 °F 83% 30.23 in 10.0 mi Calm Calm - N/A   Clear
1:54 AM 17.2 °F 11.9 °F 13.1 °F 84% 30.23 in 10.0 mi WSW 3.5 mph - N/A   Clear
2:14 AM 17.2 °F 11.9 °F 13.3 °F 84% 30.23 in 10.0 mi WSW 3.5 mph - N/A   Clear
2:34 AM 17.2 °F 10.2 °F 13.1 °F 84% 30.23 in 10.0 mi West 4.6 mph - N/A   Clear
2:54 AM 16.5 °F 11.0 °F 12.7 °F 85% 30.23 in 10.0 mi West 3.5 mph - N/A   Clear
3:14 AM 16.5 °F 9.4 °F 12.6 °F 84% 30.23 in 10.0 mi West 4.6 mph - N/A   Clear
3:34 AM 16.2 °F 7.6 °F 12.2 °F 84% 30.22 in 10.0 mi West 5.8 mph - N/A   Clear
3:54 AM 16.0 °F 10.4 °F 11.8 °F 84% 30.22 in 10.0 mi WSW 3.5 mph - N/A   Clear
4:14 AM 15.1 °F 7.7 °F 11.1 °F 84% 30.21 in 10.0 mi WSW 4.6 mph - N/A   Clear
4:34 AM 14.9 °F 7.5 °F 11.1 °F 85% 30.21 in 10.0 mi WSW 4.6 mph - N/A   Clear
4:53 AM 14.5 °F 8.8 °F 10.9 °F 86% 30.21 in 10.0 mi WSW 3.5 mph - N/A   Clear
5:14 AM 14.4 °F - 10.9 °F 86% 30.21 in 10.0 mi Calm Calm - N/A   Clear
5:33 AM 13.5 °F - 10.6 °F 88% 30.21 in 10.0 mi Calm Calm - N/A   Clear
5:54 AM 13.1 °F - 10.2 °F 88% 30.21 in 10.0 mi Calm Calm - N/A   Clear
6:14 AM 12.9 °F 6.9 °F 9.9 °F 88% 30.21 in 10.0 mi WSW 3.5 mph - N/A   Clear
6:34 AM 13.3 °F 5.6 °F 9.7 °F 86% 30.21 in 10.0 mi West 4.6 mph - N/A   Clear
6:54 AM 13.8 °F 4.9 °F 10.2 °F 86% 30.21 in 10.0 mi West 5.8 mph - N/A   Clear
7:14 AM 14.0 °F 8.2 °F 10.2 °F 85% 30.22 in 10.0 mi West 3.5 mph - N/A   Clear
7:34 AM 13.5 °F 7.5 °F 10.0 °F 86% 30.22 in 10.0 mi WSW 3.5 mph - N/A   Clear
7:54 AM 14.0 °F 5.1 °F 10.4 °F 86% 30.23 in 10.0 mi West 5.8 mph - N/A   Clear
8:13 AM 14.4 °F 6.9 °F 10.6 °F 85% 30.23 in 10.0 mi WSW 4.6 mph - N/A   Clear
8:34 AM 14.7 °F 7.3 °F 10.8 °F 84% 30.23 in 10.0 mi WSW 4.6 mph - N/A   Clear
8:54 AM 15.6 °F 8.3 °F 11.1 °F 82% 30.23 in 10.0 mi WSW 4.6 mph - N/A   Clear
9:13 AM 16.5 °F 9.4 °F 11.7 °F 81% 30.23 in 10.0 mi WSW 4.6 mph - N/A   Clear
9:34 AM 18.1 °F 10.0 °F 12.6 °F 79% 30.23 in 10.0 mi West 5.8 mph - N/A   Clear
9:54 AM 19.2 °F 10.2 °F 13.1 °F 77% 30.22 in 10.0 mi West 6.9 mph - N/A   Clear
10:14 AM 20.3 °F - 13.8 °F 76% 30.22 in 10.0 mi Calm Calm - N/A   Clear
10:34 AM 21.7 °F - 14.7 °F 74% 30.22 in 10.0 mi Calm Calm - N/A   Clear
10:54 AM 22.1 °F 14.7 °F 15.6 °F 76% 30.22 in 10.0 mi SW 5.8 mph - N/A   Clear
11:14 AM 23.2 °F 16.0 °F 16.7 °F 76% 30.22 in 10.0 mi SW 5.8 mph - N/A   Clear
11:34 AM 24.3 °F 17.3 °F 16.9 °F 73% 30.21 in 10.0 mi WSW 5.8 mph - N/A   Clear
11:53 AM 25.3 °F 19.7 °F 16.3 °F 69% 30.21 in 10.0 mi WSW 4.6 mph - N/A   Clear
12:14 PM 25.7 °F 18.0 °F 15.4 °F 65% 30.20 in 10.0 mi West 6.9 mph - N/A   Clear
12:33 PM 24.8 °F 15.3 °F 15.1 °F 67% 30.20 in 10.0 mi WSW 9.2 mph - N/A   Clear
12:54 PM 25.5 °F 17.8 °F 16.3 °F 68% 30.19 in 10.0 mi WSW 6.9 mph - N/A   Scattered Clouds
1:14 PM 25.3 °F 16.7 °F 16.3 °F 69% 30.19 in 10.0 mi WSW 8.1 mph - N/A   Scattered Clouds
1:34 PM 24.8 °F 15.3 °F 15.6 °F 68% 30.18 in 10.0 mi WSW 9.2 mph 17.3 mph N/A   Scattered Clouds
1:54 PM 24.4 °F 16.5 °F 14.7 °F 67% 30.18 in 10.0 mi WSW 6.9 mph 16.1 mph N/A   Clear
2:14 PM 23.9 °F 14.2 °F 15.3 °F 70% 30.17 in 10.0 mi WSW 9.2 mph - N/A   Clear
2:34 PM 25.0 °F 14.8 °F 14.7 °F 65% 30.16 in 10.0 mi WSW 10.4 mph - N/A   Clear
2:54 PM 25.3 °F 17.6 °F 12.7 °F 59% 30.15 in 10.0 mi WSW 6.9 mph - N/A   Clear
3:13 PM 25.3 °F 18.5 °F 13.3 °F 60% 30.14 in 10.0 mi WSW 5.8 mph - N/A   Clear
3:34 PM 24.8 °F 17.9 °F 12.9 °F 61% 30.14 in 10.0 mi West 5.8 mph - N/A   Clear
3:54 PM 23.7 °F 15.6 °F 13.1 °F 64% 30.15 in 10.0 mi West 6.9 mph - N/A   Clear
4:14 PM 23.0 °F 13.9 °F 13.1 °F 66% 30.15 in 10.0 mi West 8.1 mph - N/A   Clear
4:34 PM 23.0 °F 17.0 °F 13.5 °F 67% 30.14 in 10.0 mi WSW 4.6 mph - N/A   Scattered Clouds
4:54 PM 23.0 °F 17.0 °F 12.9 °F 65% 30.14 in 10.0 mi WSW 4.6 mph - N/A   Scattered Clouds
5:14 PM 22.1 °F - 12.9 °F 68% 30.14 in 10.0 mi Calm Calm - N/A   Scattered Clouds
5:34 PM 22.1 °F 15.9 °F 13.1 °F 68% 30.14 in 10.0 mi WSW 4.6 mph - N/A   Scattered Clouds
5:54 PM 22.1 °F 15.9 °F 13.1 °F 68% 30.15 in 10.0 mi West 4.6 mph - N/A   Mostly Cloudy
6:14 PM 21.6 °F 15.3 °F 13.1 °F 70% 30.14 in 10.0 mi West 4.6 mph - N/A   Mostly Cloudy
6:33 PM 21.6 °F 15.3 °F 12.7 °F 69% 30.14 in 10.0 mi West 4.6 mph - N/A   Mostly Cloudy
6:54 PM 21.2 °F 16.4 °F 12.2 °F 68% 30.14 in 10.0 mi West 3.5 mph - N/A   Mostly Cloudy
7:14 PM 21.0 °F 16.2 °F 12.2 °F 69% 30.14 in 10.0 mi West 3.5 mph - N/A   Scattered Clouds
7:34 PM 21.6 °F 16.8 °F 12.0 °F 67% 30.14 in 10.0 mi WSW 3.5 mph - N/A   Mostly Cloudy
7:54 PM 21.4 °F 15.1 °F 11.8 °F 67% 30.14 in 10.0 mi WSW 4.6 mph - N/A   Scattered Clouds
8:13 PM 21.2 °F 14.9 °F 11.7 °F 67% 30.14 in 10.0 mi West 4.6 mph - N/A   Clear
8:34 PM 21.0 °F 16.2 °F 11.3 °F 66% 30.14 in 10.0 mi West 3.5 mph - N/A   Clear
8:54 PM 21.2 °F 14.9 °F 12.2 °F 68% 30.14 in 10.0 mi West 4.6 mph - N/A   Clear
9:14 PM 21.4 °F 13.8 °F 12.2 °F 68% 30.14 in 10.0 mi West 5.8 mph - N/A   Clear
9:34 PM 21.2 °F 13.6 °F 12.6 °F 69% 30.13 in 10.0 mi West 5.8 mph - N/A   Clear
9:54 PM 21.2 °F 12.6 °F 12.6 °F 69% 30.13 in 10.0 mi West 6.9 mph - N/A   Clear
10:14 PM 20.8 °F 12.1 °F 12.2 °F 69% 30.13 in 10.0 mi West 6.9 mph - N/A   Clear
10:34 PM 20.7 °F 13.0 °F 12.2 °F 70% 30.12 in 10.0 mi West 5.8 mph - N/A   Clear
10:53 PM 20.8 °F 12.1 °F 12.0 °F 69% 30.12 in 10.0 mi West 6.9 mph - N/A   Clear
11:14 PM 20.8 °F 14.4 °F 12.2 °F 69% 30.11 in 10.0 mi West 4.6 mph - N/A   Clear
11:34 PM 20.7 °F 11.9 °F 11.7 °F 68% 30.11 in 10.0 mi West 6.9 mph - N/A   Clear
11:54 PM 20.7 °F 11.9 °F 11.3 °F 67% 30.11 in 10.0 mi West 6.9 mph - N/A   Clear